Change the Weather History Date:

Sunday, January 19, 2014

  Actual Average Record
Temperature  
Mean Temperature 56 °F -  
Max Temperature 70 °F 67 °F 82 °F (1971)
Min Temperature 41 °F 43 °F 31 °F (1990)
Degree Days  
Heating Degree Days 10    
Growing Degree Days 6 (Base 50)    
Moisture  
Dew Point 15 °F    
Average Humidity 21    
Maximum Humidity 34    
Minimum Humidity 11    
Precipitation  
Precipitation 0.00 in - - ()
Sea Level Pressure  
Sea Level Pressure 30.11 in    
Wind  
Wind Speed 3 mph (WSW)    
Max Wind Speed 9 mph    
Max Gust Speed -    
Visibility 10 miles    
Events      
Averages and records for this station are not official NWS values.
T = Trace of Precipitation, MM = Missing Value Source: NWS Daily Summary

Daily Weather History Graph

Daily Weather History Graph

Search for Another Location

Airport or City:

Trip Planner

Search our weather history database for the weather conditions in past years. The results will help you decide how hot, cold, wet, or windy it might be!

Date:

Astronomy

Jan. 19, 2014 Rise Set
Actual Time 6:42 AM PST 4:57 PM PST
Civil Twilight 6:15 AM PST 5:24 PM PST
Nautical Twilight 5:44 AM PST 5:54 PM PST
Astronomical Twilight 5:15 AM PST 6:24 PM PST
Moon 8:26 PM PST (1/19) 8:25 AM PST (1/19)
Length of Visible Light 11h 09m
Length of Day
10h 15m
Waning Gibbous, 89% of the Moon is Illuminated
Jan 19
Waning Gibbous
Jan 23
Last Quarter
Jan 30
New
Feb 6
First Quarter
Feb 14
Full

Hourly Weather History & Observations

Time (PST) Temp. Windchill Dew Point Humidity Pressure Visibility Wind Dir Wind Speed Gust Speed Precip Events Conditions
12:52 AM 48.0 °F - 12.0 °F 24% 30.09 in 10.0 mi North 3.5 mph - N/A   Clear
1:52 AM 45.0 °F - 12.9 °F 27% 30.09 in 10.0 mi Calm Calm - N/A   Clear
2:52 AM 48.9 °F - 12.0 °F 23% 30.09 in 10.0 mi WSW 8.1 mph - N/A   Clear
3:52 AM 55.0 °F - 9.0 °F 16% 30.09 in 10.0 mi Calm Calm - N/A   Clear
4:52 AM 45.0 °F 43.5 °F 12.0 °F 26% 30.10 in 10.0 mi West 3.5 mph - N/A   Clear
5:52 AM 44.1 °F - 17.1 °F 34% 30.13 in 10.0 mi Calm Calm - N/A   Clear
6:52 AM 41.0 °F 39.0 °F 14.0 °F 33% 30.14 in 10.0 mi South 3.5 mph - N/A   Clear
7:52 AM 48.9 °F - 12.0 °F 23% 30.15 in 10.0 mi West 5.8 mph - N/A   Clear
8:52 AM 55.0 °F - 10.9 °F 17% 30.17 in 10.0 mi SW 5.8 mph - N/A   Clear
9:52 AM 60.1 °F - 10.9 °F 14% 30.18 in 10.0 mi WSW 4.6 mph - N/A   Clear
10:52 AM 64.0 °F - 10.0 °F 12% 30.16 in 10.0 mi Calm Calm - N/A   Clear
11:52 AM 66.9 °F - 10.0 °F 11% 30.13 in 10.0 mi Calm Calm - N/A   Clear
12:52 PM 68.0 °F - 18.0 °F 15% 30.10 in 10.0 mi South 4.6 mph - N/A   Clear
1:52 PM 69.1 °F - 18.0 °F 14% 30.08 in 10.0 mi South 3.5 mph - N/A   Clear
2:52 PM 70.0 °F - 16.0 °F 13% 30.07 in 10.0 mi Calm Calm - N/A   Clear
3:52 PM 70.0 °F - 12.9 °F 11% 30.06 in 10.0 mi Calm Calm - N/A   Clear
4:52 PM 66.0 °F - 24.1 °F 20% 30.07 in 10.0 mi Calm Calm - N/A   Clear
5:52 PM 63.0 °F - 23.0 °F 22% 30.07 in 10.0 mi Calm Calm - N/A   Clear
6:52 PM 61.0 °F - 23.0 °F 23% 30.08 in 10.0 mi WSW 3.5 mph - N/A   Clear
7:52 PM 54.0 °F - 19.0 °F 25% 30.09 in 10.0 mi NNW 9.2 mph - N/A   Clear
8:52 PM 54.0 °F - 19.9 °F 26% 30.09 in 10.0 mi West 4.6 mph - N/A   Clear
9:52 PM 48.9 °F - 18.0 °F 29% 30.10 in 10.0 mi NNE 4.6 mph - N/A   Clear
10:52 PM 48.0 °F - 16.0 °F 28% 30.10 in 10.0 mi North 4.6 mph - N/A   Clear
11:52 PM 46.0 °F - 15.1 °F 29% 30.10 in 10.0 mi Calm Calm - N/A   Clear